Location: Boley
(53.1150°N, 8.2269°W)
Time: 00:42:21
(UTC+00:00)

Cosmos 841 Rocket - Pass Details

Date: 15 May 2026
Orbit: 742 x 767 km, 74.0° (Epoch: 9 June)

Event Time Altitude Azimuth Distance (km) Brightness Sun altitude
Exits shadow 23:27:22 28° 164° (SSE) 1,389 4.2 -16.6°
Maximum altitude 23:29:42 48° 107° (ESE) 995 3.8 -16.7°
Drops below altitude 10° 23:34:44 10° 34° (NE) 2,314 6.6 -16.9°
Sets 23:37:11 0° 29° (NNE) 3,247 7.5 -17.0°
